User: anonymous   Login
Location: Tel Aviv
(32.0670°N, 34.7670°E)
Time: 22:35:58
(UTC+03:00)
Language:

A-11 Canister half - Orbit

View from above orbital plane
View from above orbital plane
View from above satellite
View from above satellite

Ground track
Ground track

The orbit data is extracted from the following two-line orbital elements,

1    53U 60009E   24198.11942914 -.00000007  00000-0  76806-3 0  9996
2    53  47.2792 344.8269 0100510 163.1634 197.2528 12.17340639850023
Epoch (UTC): 16 July 2024 02:51:58
Eccentricity: 0.0100510
inclination: 47.2792°
perigee height: 1524 km
apogee height: 1684 km
right ascension of ascending node: 344.8269°
argument of perigee: 163.1634°
revolutions per day: 12.17340639
mean anomaly at epoch: 197.2528°
orbit number at epoch: 85002

The dashed part of the orbit path shows where the satellite is in the earth's shadow,  

DLR